,,PressureMeas_1m,,PRMeasQMR101_1,,RHStat155_1m_1,,SRMeasQMS101R_1m,,TAStat155_1m_1,,GenWind_1,,GenWind_1,
2017-04-19, 00:00:06,VALID,918.733,VALID,0.0,VALID,97.182,VALID,-0.039,VALID,19.584,VALID,142.0,VALID,2.097,
2017-04-19, 00:01:06,VALID,918.739,VALID,0.0,VALID,96.877,VALID,-0.02,VALID,19.59,VALID,148.0,VALID,2.033,
2017-04-19, 00:02:06,VALID,918.741,VALID,0.0,VALID,96.778,VALID,-0.019,VALID,19.628,VALID,162.0,VALID,1.459,
2017-04-19, 00:03:06,VALID,918.756,VALID,0.0,VALID,96.663,VALID,-0.026,VALID,19.635,VALID,166.0,VALID,1.441,
2017-04-19, 00:04:06,VALID,918.769,VALID,0.0,VALID,96.338,VALID,-0.019,VALID,19.63,VALID,158.0,VALID,1.528,
2017-04-19, 00:05:06,VALID,918.776,VALID,0.0,VALID,96.225,VALID,-0.012,VALID,19.622,VALID,157.0,VALID,1.234,
2017-04-19, 00:06:06,VALID,918.792,VALID,0.0,VALID,95.918,VALID,-0.007,VALID,19.61,VALID,159.0,VALID,1.015,
2017-04-19, 00:07:06,VALID,918.795,VALID,0.0,VALID,95.959,VALID,0.002,VALID,19.615,VALID,149.0,VALID,1.439,
2017-04-19, 00:08:06,VALID,918.814,VALID,0.0,VALID,95.486,VALID,0.01,VALID,19.626,VALID,148.0,VALID,1.541,
2017-04-19, 00:09:06,VALID,918.803,VALID,0.0,VALID,95.553,VALID,0.012,VALID,19.661,VALID,137.0,VALID,1.387,
2017-04-19, 00:10:06,VALID,918.79,VALID,0.0,VALID,95.911,VALID,0.005,VALID,19.687,VALID,139.0,VALID,1.613,
2017-04-19, 00:11:06,VALID,918.777,VALID,0.0,VALID,95.883,VALID,0.01,VALID,19.737,VALID,137.0,VALID,1.62,
2017-04-19, 00:12:06,VALID,918.777,VALID,0.0,VALID,95.684,VALID,0.019,VALID,19.778,VALID,138.0,VALID,1.514,
2017-04-19, 00:13:06,VALID,918.779,VALID,0.0,VALID,95.356,VALID,0.016,VALID,19.814,VALID,141.0,VALID,1.341,
2017-04-19, 00:14:06,VALID,918.769,VALID,0.0,VALID,95.327,VALID,0.018,VALID,19.828,VALID,141.0,VALID,1.479,
2017-04-19, 00:15:06,VALID,918.769,VALID,0.0,VALID,95.155,VALID,0.019,VALID,19.835,VALID,141.0,VALID,1.239,
2017-04-19, 00:16:06,VALID,918.762,VALID,0.0,VALID,94.955,VALID,0.013,VALID,19.825,VALID,143.0,VALID,1.132,
2017-04-19, 00:17:06,VALID,918.748,VALID,0.0,VALID,94.887,VALID,0.015,VALID,19.813,VALID,140.0,VALID,1.061,
2017-04-19, 00:18:06,VALID,918.73,VALID,0.0,VALID,94.871,VALID,0.006,VALID,19.831,VALID,143.0,VALID,1.193,
2017-04-19, 00:19:06,VALID,918.722,VALID,0.0,VALID,94.814,VALID,0.015,VALID,19.883,VALID,141.0,VALID,1.379,
2017-04-19, 00:20:06,VALID,918.697,VALID,0.0,VALID,94.284,VALID,0.015,VALID,19.915,VALID,136.0,VALID,1.05,
2017-04-19, 00:21:06,VALID,918.696,VALID,0.0,VALID,94.487,VALID,0.013,VALID,19.906,VALID,133.0,VALID,0.964,
2017-04-19, 00:22:06,VALID,918.681,VALID,0.0,VALID,93.901,VALID,-0.006,VALID,19.863,VALID,132.0,VALID,1.104,
2017-04-19, 00:23:06,VALID,918.682,VALID,0.0,VALID,93.679,VALID,0.002,VALID,19.847,VALID,123.0,VALID,0.773,
2017-04-19, 00:24:06,VALID,918.702,VALID,0.0,VALID,93.721,VALID,0.006,VALID,19.83,VALID,67.0,VALID,0.3,
2017-04-19, 00:25:06,VALID,918.692,VALID,0.0,VALID,93.86,VALID,0.008,VALID,19.818,VALID,51.0,VALID,0.229,
2017-04-19, 00:26:06,VALID,918.689,VALID,0.0,VALID,93.89,VALID,-0.001,VALID,19.794,VALID,47.0,VALID,0.081,
2017-04-19, 00:27:06,VALID,918.69,VALID,0.0,VALID,93.957,VALID,0.022,VALID,19.752,VALID,38.0,VALID,0.041,
2017-04-19, 00:28:06,VALID,918.668,VALID,0.0,VALID,93.999,VALID,0.016,VALID,19.714,VALID,38.0,VALID,0.009,
2017-04-19, 00:29:06,VALID,918.661,VALID,0.0,VALID,94.138,VALID,0.022,VALID,19.682,VALID,24.0,VALID,0.22,
2017-04-19, 00:30:06,VALID,918.642,VALID,0.0,VALID,94.167,VALID,0.021,VALID,19.654,VALID,37.0,VALID,0.65,
2017-04-19, 00:31:06,VALID,918.613,VALID,0.0,VALID,94.014,VALID,0.021,VALID,19.633,VALID,49.0,VALID,0.885,
2017-04-19, 00:32:06,VALID,918.573,VALID,0.0,VALID,93.996,VALID,0.006,VALID,19.596,VALID,64.0,VALID,0.993,
2017-04-19, 00:33:06,VALID,918.542,VALID,0.0,VALID,94.149,VALID,0.005,VALID,19.569,VALID,88.0,VALID,1.071,
2017-04-19, 00:34:06,VALID,918.508,VALID,0.0,VALID,94.163,VALID,-0.019,VALID,19.578,VALID,95.0,VALID,1.212,
2017-04-19, 00:35:06,VALID,918.471,VALID,0.0,VALID,94.096,VALID,-0.002,VALID,19.603,VALID,108.0,VALID,1.257,
2017-04-19, 00:36:06,VALID,918.442,VALID,0.0,VALID,94.039,VALID,-0.001,VALID,19.615,VALID,115.0,VALID,1.46,
2017-04-19, 00:37:06,VALID,918.42,VALID,0.0,VALID,94.038,VALID,0.01,VALID,19.612,VALID,131.0,VALID,1.348,
2017-04-19, 00:38:06,VALID,918.402,VALID,0.0,VALID,94.042,VALID,0.0,VALID,19.602,VALID,134.0,VALID,1.403,
2017-04-19, 00:39:06,VALID,918.375,VALID,0.0,VALID,93.946,VALID,0.007,VALID,19.596,VALID,135.0,VALID,1.585,
2017-04-19, 00:40:06,VALID,918.359,VALID,0.0,VALID,93.79,VALID,0.008,VALID,19.627,VALID,130.0,VALID,1.938,
2017-04-19, 00:41:06,VALID,918.328,VALID,0.0,VALID,93.621,VALID,0.008,VALID,19.661,VALID,130.0,VALID,1.922,
2017-04-19, 00:42:06,VALID,918.288,VALID,0.0,VALID,93.604,VALID,-0.008,VALID,19.67,VALID,138.0,VALID,1.748,
2017-04-19, 00:43:06,VALID,918.277,VALID,0.0,VALID,93.926,VALID,-0.014,VALID,19.648,VALID,145.0,VALID,1.726,
2017-04-19, 00:44:06,VALID,918.253,VALID,0.0,VALID,94.581,VALID,-0.01,VALID,19.655,VALID,150.0,VALID,1.693,
2017-04-19, 00:45:06,VALID,918.24,VALID,0.0,VALID,94.804,VALID,-0.011,VALID,19.669,VALID,149.0,VALID,1.514,
2017-04-19, 00:46:06,VALID,918.239,VALID,0.0,VALID,95.302,VALID,0.001,VALID,19.672,VALID,147.0,VALID,1.377,
2017-04-19, 00:47:06,VALID,918.233,VALID,0.0,VALID,95.841,VALID,0.01,VALID,19.655,VALID,139.0,VALID,1.543,
2017-04-19, 00:48:06,VALID,918.224,VALID,0.0,VALID,95.981,VALID,0.006,VALID,19.595,VALID,130.0,VALID,1.58,
2017-04-19, 00:49:06,VALID,918.203,VALID,0.0,VALID,95.929,VALID,-0.003,VALID,19.557,VALID,135.0,VALID,1.417,
2017-04-19, 00:50:06,VALID,918.185,VALID,0.0,VALID,96.239,VALID,0.003,VALID,19.561,VALID,132.0,VALID,1.771,
2017-04-19, 00:51:06,VALID,918.194,VALID,0.0,VALID,96.311,VALID,-0.004,VALID,19.565,VALID,131.0,VALID,1.989,
2017-04-19, 00:52:06,VALID,918.192,VALID,0.0,VALID,96.122,VALID,0.004,VALID,19.591,VALID,130.0,VALID,1.967,
2017-04-19, 00:53:06,VALID,918.189,VALID,0.0,VALID,95.998,VALID,0.005,VALID,19.592,VALID,129.0,VALID,2.024,
2017-04-19, 00:54:06,VALID,918.184,VALID,0.0,VALID,95.817,VALID,0.014,VALID,19.583,VALID,127.0,VALID,2.201,
2017-04-19, 00:55:06,VALID,918.172,VALID,0.0,VALID,95.985,VALID,0.001,VALID,19.609,VALID,128.0,VALID,2.16,
2017-04-19, 00:56:06,VALID,918.145,VALID,0.0,VALID,96.162,VALID,-0.001,VALID,19.632,VALID,129.0,VALID,2.186,
2017-04-19, 00:57:06,VALID,918.134,VALID,0.0,VALID,96.327,VALID,-0.007,VALID,19.648,VALID,130.0,VALID,2.116,
2017-04-19, 00:58:06,VALID,918.105,VALID,0.0,VALID,96.305,VALID,0.008,VALID,19.656,VALID,131.0,VALID,2.079,
2017-04-19, 00:59:06,VALID,918.086,VALID,0.0,VALID,96.174,VALID,-0.009,VALID,19.66,VALID,134.0,VALID,2.136,
2017-04-19, 01:00:06,VALID,918.073,VALID,0.0,VALID,96.082,VALID,-0.009,VALID,19.674,VALID,135.0,VALID,1.936,
2017-04-19, 01:01:06,VALID,918.053,VALID,0.0,VALID,95.984,VALID,0.002,VALID,19.693,VALID,145.0,VALID,2.09,
2017-04-19, 01:02:06,VALID,918.058,VALID,0.0,VALID,96.148,VALID,0.01,VALID,19.677,VALID,142.0,VALID,1.782,
2017-04-19, 01:03:06,VALID,918.072,VALID,0.0,VALID,96.247,VALID,0.002,VALID,19.631,VALID,144.0,VALID,1.89,
2017-04-19, 01:04:06,VALID,918.078,VALID,0.0,VALID,96.079,VALID,-0.007,VALID,19.638,VALID,146.0,VALID,2.016,
2017-04-19, 01:05:06,VALID,918.102,VALID,0.0,VALID,96.092,VALID,0.014,VALID,19.652,VALID,147.0,VALID,1.988,
2017-04-19, 01:06:06,VALID,918.093,VALID,0.0,VALID,95.921,VALID,0.0,VALID,19.678,VALID,143.0,VALID,1.803,
2017-04-19, 01:07:06,VALID,918.092,VALID,0.0,VALID,95.459,VALID,0.007,VALID,19.7,VALID,141.0,VALID,1.858,
2017-04-19, 01:08:06,VALID,918.083,VALID,0.0,VALID,94.827,VALID,0.019,VALID,19.734,VALID,139.0,VALID,1.743,
2017-04-19, 01:09:06,VALID,918.079,VALID,0.0,VALID,94.666,VALID,0.027,VALID,19.773,VALID,139.0,VALID,1.865,
2017-04-19, 01:10:06,VALID,918.065,VALID,0.0,VALID,94.957,VALID,0.022,VALID,19.767,VALID,134.0,VALID,1.8,
2017-04-19, 01:11:06,VALID,918.053,VALID,0.0,VALID,95.074,VALID,0.029,VALID,19.747,VALID,133.0,VALID,1.889,
2017-04-19, 01:12:06,VALID,918.033,VALID,0.0,VALID,95.335,VALID,0.015,VALID,19.78,VALID,134.0,VALID,2.161,
2017-04-19, 01:13:06,VALID,918.038,VALID,0.0,VALID,95.372,VALID,0.003,VALID,19.855,VALID,130.0,VALID,2.22,
2017-04-19, 01:14:06,VALID,918.025,VALID,0.0,VALID,95.382,VALID,-0.011,VALID,19.922,VALID,129.0,VALID,2.281,
2017-04-19, 01:15:06,VALID,918.011,VALID,0.0,VALID,95.234,VALID,0.006,VALID,19.975,VALID,124.0,VALID,2.077,
2017-04-19, 01:16:06,VALID,918.016,VALID,0.0,VALID,94.986,VALID,0.006,VALID,20.0,VALID,117.0,VALID,1.763,
2017-04-19, 01:17:06,VALID,918.003,VALID,0.0,VALID,94.689,VALID,0.019,VALID,19.995,VALID,113.0,VALID,1.539,
2017-04-19, 01:18:06,VALID,917.992,VALID,0.0,VALID,94.542,VALID,-0.002,VALID,19.967,VALID,106.0,VALID,1.457,
2017-04-19, 01:19:06,VALID,917.967,VALID,0.0,VALID,94.638,VALID,-0.003,VALID,19.924,VALID,112.0,VALID,1.695,
2017-04-19, 01:20:06,VALID,917.947,VALID,0.0,VALID,94.699,VALID,0.0,VALID,19.914,VALID,123.0,VALID,1.417,
2017-04-19, 01:21:06,VALID,917.919,VALID,0.0,VALID,94.416,VALID,-0.002,VALID,19.923,VALID,120.0,VALID,1.372,
2017-04-19, 01:22:06,VALID,917.888,VALID,0.0,VALID,94.124,VALID,0.006,VALID,19.948,VALID,115.0,VALID,1.295,
2017-04-19, 01:23:06,VALID,917.875,VALID,0.0,VALID,93.865,VALID,0.005,VALID,19.955,VALID,122.0,VALID,1.258,
2017-04-19, 01:24:06,VALID,917.855,VALID,0.0,VALID,93.646,VALID,0.012,VALID,19.966,VALID,119.0,VALID,1.227,
2017-04-19, 01:25:06,VALID,917.844,VALID,0.0,VALID,93.602,VALID,0.027,VALID,19.991,VALID,127.0,VALID,1.112,
2017-04-19, 01:26:06,VALID,917.833,VALID,0.0,VALID,93.651,VALID,0.01,VALID,20.02,VALID,128.0,VALID,1.134,
2017-04-19, 01:27:06,VALID,917.817,VALID,0.0,VALID,93.669,VALID,0.002,VALID,20.036,VALID,131.0,VALID,1.237,
2017-04-19, 01:28:06,VALID,917.802,VALID,0.0,VALID,93.761,VALID,0.001,VALID,20.043,VALID,131.0,VALID,1.091,
2017-04-19, 01:29:06,VALID,917.798,VALID,0.0,VALID,93.981,VALID,-0.003,VALID,20.046,VALID,133.0,VALID,1.019,
2017-04-19, 01:30:06,VALID,917.796,VALID,0.0,VALID,94.082,VALID,0.0,VALID,20.044,VALID,137.0,VALID,1.052,
2017-04-19, 01:31:06,VALID,917.792,VALID,0.0,VALID,93.895,VALID,-0.0,VALID,20.054,VALID,133.0,VALID,1.152,
2017-04-19, 01:32:06,VALID,917.792,VALID,0.0,VALID,93.51,VALID,-0.011,VALID,20.072,VALID,128.0,VALID,1.142,
2017-04-19, 01:33:06,VALID,917.794,VALID,0.0,VALID,93.015,VALID,-0.023,VALID,20.106,VALID,130.0,VALID,1.086,
2017-04-19, 01:34:06,VALID,917.807,VALID,0.0,VALID,92.581,VALID,-0.02,VALID,20.12,VALID,120.0,VALID,0.947,
2017-04-19, 01:35:06,VALID,917.816,VALID,0.0,VALID,92.616,VALID,-0.004,VALID,20.124,VALID,103.0,VALID,0.195,
2017-04-19, 01:36:06,VALID,917.813,VALID,0.0,VALID,92.811,VALID,0.002,VALID,20.11,VALID,91.0,VALID,0.173,
2017-04-19, 01:37:06,VALID,917.813,VALID,0.0,VALID,92.834,VALID,0.003,VALID,20.068,VALID,91.0,VALID,0.542,
2017-04-19, 01:38:06,VALID,917.8,VALID,0.0,VALID,93.208,VALID,0.017,VALID,20.016,VALID,108.0,VALID,0.95,
2017-04-19, 01:39:06,VALID,917.782,VALID,0.0,VALID,93.544,VALID,0.005,VALID,19.991,VALID,123.0,VALID,1.119,
2017-04-19, 01:40:06,VALID,917.752,VALID,0.0,VALID,93.832,VALID,-0.01,VALID,19.991,VALID,128.0,VALID,1.393,
2017-04-19, 01:41:06,VALID,917.724,VALID,0.0,VALID,94.065,VALID,-0.012,VALID,20.011,VALID,127.0,VALID,1.675,
2017-04-19, 01:42:06,VALID,917.706,VALID,0.0,VALID,94.048,VALID,-0.011,VALID,20.033,VALID,128.0,VALID,1.584,
2017-04-19, 01:43:06,VALID,917.691,VALID,0.0,VALID,93.727,VALID,-0.0,VALID,20.048,VALID,129.0,VALID,1.439,
2017-04-19, 01:44:06,VALID,917.667,VALID,0.0,VALID,93.662,VALID,-0.002,VALID,20.043,VALID,125.0,VALID,1.404,
2017-04-19, 01:45:06,VALID,917.662,VALID,0.0,VALID,93.566,VALID,0.007,VALID,20.023,VALID,126.0,VALID,1.175,
2017-04-19, 01:46:06,VALID,917.64,VALID,0.0,VALID,93.455,VALID,0.008,VALID,20.001,VALID,118.0,VALID,1.112,
2017-04-19, 01:47:06,VALID,917.619,VALID,0.0,VALID,93.115,VALID,0.004,VALID,19.986,VALID,116.0,VALID,1.105,
2017-04-19, 01:48:06,VALID,917.6,VALID,0.0,VALID,92.867,VALID,-0.004,VALID,19.975,VALID,114.0,VALID,0.987,
2017-04-19, 01:49:06,VALID,917.589,VALID,0.0,VALID,92.201,VALID,-0.004,VALID,19.972,VALID,120.0,VALID,1.457,
2017-04-19, 01:50:06,VALID,917.574,VALID,0.0,VALID,91.801,VALID,0.002,VALID,20.014,VALID,113.0,VALID,1.007,
2017-04-19, 01:51:06,VALID,917.563,VALID,0.0,VALID,92.208,VALID,-0.005,VALID,20.017,VALID,101.0,VALID,0.579,
2017-04-19, 01:52:06,VALID,917.545,VALID,0.0,VALID,92.39,VALID,-0.019,VALID,19.944,VALID,98.0,VALID,0.913,
2017-04-19, 01:53:06,VALID,917.534,VALID,0.0,VALID,92.108,VALID,-0.013,VALID,19.867,VALID,97.0,VALID,1.18,
2017-04-19, 01:54:06,VALID,917.512,VALID,0.0,VALID,91.803,VALID,-0.013,VALID,19.789,VALID,101.0,VALID,1.43,
2017-04-19, 01:55:06,VALID,917.508,VALID,0.0,VALID,91.153,VALID,-0.013,VALID,19.77,VALID,106.0,VALID,1.577,
2017-04-19, 01:56:06,VALID,917.495,VALID,0.0,VALID,91.218,VALID,-0.015,VALID,19.78,VALID,111.0,VALID,1.512,
2017-04-19, 01:57:06,VALID,917.48,VALID,0.0,VALID,91.637,VALID,-0.023,VALID,19.743,VALID,117.0,VALID,1.524,
2017-04-19, 01:58:06,VALID,917.467,VALID,0.0,VALID,92.037,VALID,-0.011,VALID,19.7,VALID,124.0,VALID,1.2,
2017-04-19, 01:59:06,VALID,917.458,VALID,0.0,VALID,92.226,VALID,-0.019,VALID,19.67,VALID,125.0,VALID,1.102,
2017-04-19, 02:00:06,VALID,917.425,VALID,0.0,VALID,92.125,VALID,-0.023,VALID,19.646,VALID,123.0,VALID,1.288,
2017-04-19, 02:01:06,VALID,917.399,VALID,0.0,VALID,92.16,VALID,-0.013,VALID,19.659,VALID,128.0,VALID,0.848,
2017-04-19, 02:02:06,VALID,917.372,VALID,0.0,VALID,92.198,VALID,-0.015,VALID,19.66,VALID,130.0,VALID,0.848,
2017-04-19, 02:03:06,VALID,917.349,VALID,0.0,VALID,91.895,VALID,-0.003,VALID,19.685,VALID,127.0,VALID,0.963,
2017-04-19, 02:04:06,VALID,917.338,VALID,0.0,VALID,91.661,VALID,-0.014,VALID,19.717,VALID,123.0,VALID,1.025,
2017-04-19, 02:05:06,VALID,917.317,VALID,0.0,VALID,91.423,VALID,-0.017,VALID,19.755,VALID,123.0,VALID,0.987,
2017-04-19, 02:06:06,VALID,917.3,VALID,0.0,VALID,91.486,VALID,-0.005,VALID,19.78,VALID,128.0,VALID,0.681,
2017-04-19, 02:07:06,VALID,917.292,VALID,0.0,VALID,91.738,VALID,-0.011,VALID,19.748,VALID,133.0,VALID,0.559,
2017-04-19, 02:08:06,VALID,917.292,VALID,0.0,VALID,91.701,VALID,-0.01,VALID,19.727,VALID,131.0,VALID,0.604,
2017-04-19, 02:09:06,VALID,917.284,VALID,0.0,VALID,91.618,VALID,-0.002,VALID,19.716,VALID,137.0,VALID,0.553,
2017-04-19, 02:10:06,VALID,917.272,VALID,0.0,VALID,91.908,VALID,0.005,VALID,19.708,VALID,141.0,VALID,0.551,
2017-04-19, 02:11:06,VALID,917.267,VALID,0.0,VALID,92.371,VALID,-0.006,VALID,19.71,VALID,142.0,VALID,0.438,
2017-04-19, 02:12:06,VALID,917.277,VALID,0.0,VALID,92.613,VALID,-0.005,VALID,19.691,VALID,141.0,VALID,0.271,
2017-04-19, 02:13:06,VALID,917.273,VALID,0.0,VALID,92.529,VALID,0.012,VALID,19.669,VALID,141.0,VALID,0.243,
2017-04-19, 02:14:06,VALID,917.272,VALID,0.0,VALID,92.937,VALID,0.005,VALID,19.658,VALID,139.0,VALID,0.347,
2017-04-19, 02:15:06,VALID,917.268,VALID,0.0,VALID,93.182,VALID,0.017,VALID,19.626,VALID,129.0,VALID,0.284,
2017-04-19, 02:16:06,VALID,917.251,VALID,0.0,VALID,93.441,VALID,0.025,VALID,19.595,VALID,112.0,VALID,0.475,
2017-04-19, 02:17:06,VALID,917.238,VALID,0.0,VALID,93.358,VALID,0.006,VALID,19.574,VALID,122.0,VALID,0.572,
2017-04-19, 02:18:06,VALID,917.228,VALID,0.0,VALID,93.218,VALID,0.007,VALID,19.57,VALID,103.0,VALID,0.449,
2017-04-19, 02:19:06,VALID,917.223,VALID,0.0,VALID,92.977,VALID,0.004,VALID,19.55,VALID,106.0,VALID,0.543,
2017-04-19, 02:20:06,VALID,917.211,VALID,0.0,VALID,92.856,VALID,-0.004,VALID,19.527,VALID,90.0,VALID,0.359,
2017-04-19, 02:21:06,VALID,917.194,VALID,0.0,VALID,92.81,VALID,0.016,VALID,19.486,VALID,92.0,VALID,0.522,
2017-04-19, 02:22:06,VALID,917.186,VALID,0.0,VALID,92.665,VALID,0.004,VALID,19.467,VALID,115.0,VALID,0.961,
2017-04-19, 02:23:06,VALID,917.176,VALID,0.0,VALID,92.323,VALID,-0.004,VALID,19.497,VALID,125.0,VALID,1.188,
2017-04-19, 02:24:06,VALID,917.177,VALID,0.0,VALID,91.645,VALID,0.031,VALID,19.596,VALID,123.0,VALID,1.159,
2017-04-19, 02:25:06,VALID,917.175,VALID,0.0,VALID,91.267,VALID,0.016,VALID,19.693,VALID,117.0,VALID,0.847,
2017-04-19, 02:26:06,VALID,917.167,VALID,0.0,VALID,91.188,VALID,0.012,VALID,19.712,VALID,121.0,VALID,0.689,
2017-04-19, 02:27:06,VALID,917.184,VALID,0.0,VALID,91.371,VALID,-0.002,VALID,19.682,VALID,119.0,VALID,0.789,
2017-04-19, 02:28:06,VALID,917.191,VALID,0.0,VALID,91.537,VALID,0.006,VALID,19.643,VALID,125.0,VALID,0.657,
2017-04-19, 02:29:06,VALID,917.193,VALID,0.0,VALID,91.832,VALID,0.01,VALID,19.603,VALID,123.0,VALID,0.55,
2017-04-19, 02:30:06,VALID,917.205,VALID,0.0,VALID,92.016,VALID,0.009,VALID,19.604,VALID,126.0,VALID,0.525,
2017-04-19, 02:31:06,VALID,917.198,VALID,0.0,VALID,92.207,VALID,0.011,VALID,19.622,VALID,121.0,VALID,0.676,
2017-04-19, 02:32:06,VALID,917.195,VALID,0.0,VALID,92.311,VALID,0.005,VALID,19.616,VALID,117.0,VALID,0.629,
2017-04-19, 02:33:06,VALID,917.191,VALID,0.0,VALID,92.429,VALID,0.026,VALID,19.61,VALID,124.0,VALID,0.691,
2017-04-19, 02:34:06,VALID,917.182,VALID,0.0,VALID,92.544,VALID,0.032,VALID,19.59,VALID,117.0,VALID,0.743,
2017-04-19, 02:35:06,VALID,917.169,VALID,0.0,VALID,92.64,VALID,0.02,VALID,19.594,VALID,117.0,VALID,0.7,
2017-04-19, 02:36:06,VALID,917.154,VALID,0.0,VALID,92.615,VALID,0.005,VALID,19.62,VALID,118.0,VALID,0.778,
2017-04-19, 02:37:06,VALID,917.153,VALID,0.0,VALID,92.431,VALID,0.003,VALID,19.673,VALID,122.0,VALID,0.806,
2017-04-19, 02:38:06,VALID,917.136,VALID,0.0,VALID,92.267,VALID,0.006,VALID,19.711,VALID,124.0,VALID,0.738,
2017-04-19, 02:39:06,VALID,917.133,VALID,0.0,VALID,92.178,VALID,-0.005,VALID,19.726,VALID,118.0,VALID,0.4,
2017-04-19, 02:40:06,VALID,917.126,VALID,0.0,VALID,92.276,VALID,-0.006,VALID,19.716,VALID,103.0,VALID,0.109,
2017-04-19, 02:41:06,VALID,917.127,VALID,0.0,VALID,92.274,VALID,-0.001,VALID,19.673,VALID,103.0,VALID,0.19,
2017-04-19, 02:42:06,VALID,917.133,VALID,0.0,VALID,92.513,VALID,-0.005,VALID,19.608,VALID,103.0,VALID,0.187,
2017-04-19, 02:43:06,VALID,917.138,VALID,0.0,VALID,92.726,VALID,0.004,VALID,19.543,VALID,103.0,VALID,0.262,
2017-04-19, 02:44:06,VALID,917.134,VALID,0.0,VALID,93.084,VALID,-0.002,VALID,19.523,VALID,104.0,VALID,0.371,
2017-04-19, 02:45:06,VALID,917.128,VALID,0.0,VALID,93.263,VALID,-0.009,VALID,19.532,VALID,116.0,VALID,0.483,
2017-04-19, 02:46:06,VALID,917.116,VALID,0.0,VALID,93.341,VALID,-0.005,VALID,19.57,VALID,128.0,VALID,0.888,
2017-04-19, 02:47:06,VALID,917.1,VALID,0.0,VALID,93.085,VALID,-0.006,VALID,19.661,VALID,125.0,VALID,1.111,
2017-04-19, 02:48:06,VALID,917.092,VALID,0.0,VALID,92.84,VALID,0.01,VALID,19.764,VALID,123.0,VALID,1.397,
2017-04-19, 02:49:06,VALID,917.08,VALID,0.0,VALID,92.524,VALID,0.003,VALID,19.859,VALID,118.0,VALID,1.276,
2017-04-19, 02:50:06,VALID,917.075,VALID,0.0,VALID,92.242,VALID,0.008,VALID,19.917,VALID,120.0,VALID,1.612,
2017-04-19, 02:51:06,VALID,917.067,VALID,0.0,VALID,91.933,VALID,0.007,VALID,19.969,VALID,119.0,VALID,1.483,
2017-04-19, 02:52:06,VALID,917.039,VALID,0.0,VALID,91.909,VALID,0.003,VALID,19.96,VALID,110.0,VALID,1.243,
2017-04-19, 02:53:06,VALID,917.032,VALID,0.0,VALID,92.102,VALID,-0.015,VALID,19.886,VALID,106.0,VALID,1.296,
2017-04-19, 02:54:06,VALID,917.023,VALID,0.0,VALID,92.445,VALID,-0.004,VALID,19.806,VALID,106.0,VALID,1.108,
2017-04-19, 02:55:06,VALID,917.012,VALID,0.0,VALID,92.826,VALID,-0.004,VALID,19.738,VALID,105.0,VALID,1.068,
2017-04-19, 02:56:06,VALID,917.022,VALID,0.0,VALID,93.123,VALID,-0.013,VALID,19.676,VALID,108.0,VALID,0.893,
2017-04-19, 02:57:06,VALID,917.019,VALID,0.0,VALID,93.529,VALID,-0.008,VALID,19.651,VALID,109.0,VALID,0.759,
2017-04-19, 02:58:06,VALID,917.022,VALID,0.0,VALID,93.638,VALID,-0.012,VALID,19.635,VALID,117.0,VALID,0.673,
2017-04-19, 02:59:06,VALID,917.023,VALID,0.0,VALID,93.777,VALID,-0.005,VALID,19.635,VALID,116.0,VALID,0.626,
2017-04-19, 03:00:06,VALID,917.017,VALID,0.0,VALID,93.862,VALID,0.0,VALID,19.64,VALID,127.0,VALID,0.532,
2017-04-19, 03:01:06,VALID,917.01,VALID,0.0,VALID,93.862,VALID,-0.007,VALID,19.658,VALID,129.0,VALID,0.378,
2017-04-19, 03:02:06,VALID,916.994,VALID,0.0,VALID,93.946,VALID,-0.009,VALID,19.657,VALID,129.0,VALID,0.338,
2017-04-19, 03:03:06,VALID,916.999,VALID,0.0,VALID,93.993,VALID,-0.012,VALID,19.654,VALID,130.0,VALID,0.356,
2017-04-19, 03:04:06,VALID,916.993,VALID,0.0,VALID,93.952,VALID,-0.012,VALID,19.651,VALID,129.0,VALID,0.274,
2017-04-19, 03:05:06,VALID,916.973,VALID,0.0,VALID,94.008,VALID,-0.016,VALID,19.655,VALID,129.0,VALID,0.325,
2017-04-19, 03:06:06,VALID,916.971,VALID,0.0,VALID,94.091,VALID,-0.003,VALID,19.638,VALID,125.0,VALID,0.478,
2017-04-19, 03:07:06,VALID,916.971,VALID,0.0,VALID,94.185,VALID,0.002,VALID,19.617,VALID,126.0,VALID,0.706,
2017-04-19, 03:08:06,VALID,916.955,VALID,0.0,VALID,94.35,VALID,-0.012,VALID,19.613,VALID,131.0,VALID,0.904,
2017-04-19, 03:09:06,VALID,916.945,VALID,0.0,VALID,94.445,VALID,-0.002,VALID,19.627,VALID,133.0,VALID,0.977,
2017-04-19, 03:10:06,VALID,916.937,VALID,0.0,VALID,94.186,VALID,-0.008,VALID,19.664,VALID,123.0,VALID,1.035,
2017-04-19, 03:11:06,VALID,916.946,VALID,0.0,VALID,93.966,VALID,-0.005,VALID,19.702,VALID,129.0,VALID,1.048,
2017-04-19, 03:12:06,VALID,916.936,VALID,0.0,VALID,93.763,VALID,-0.009,VALID,19.702,VALID,132.0,VALID,0.933,
2017-04-19, 03:13:06,VALID,916.919,VALID,0.0,VALID,93.619,VALID,-0.009,VALID,19.684,VALID,130.0,VALID,1.005,
2017-04-19, 03:14:06,VALID,916.923,VALID,0.0,VALID,93.564,VALID,-0.012,VALID,19.673,VALID,136.0,VALID,0.886,
2017-04-19, 03:15:06,VALID,916.912,VALID,0.0,VALID,93.286,VALID,-0.001,VALID,19.688,VALID,129.0,VALID,0.991,
2017-04-19, 03:16:06,VALID,916.909,VALID,0.0,VALID,92.866,VALID,-0.001,VALID,19.736,VALID,124.0,VALID,1.105,
2017-04-19, 03:17:06,VALID,916.899,VALID,0.0,VALID,92.669,VALID,0.008,VALID,19.782,VALID,115.0,VALID,1.163,
2017-04-19, 03:18:06,VALID,916.905,VALID,0.0,VALID,92.656,VALID,-0.004,VALID,19.794,VALID,117.0,VALID,0.935,
2017-04-19, 03:19:06,VALID,916.897,VALID,0.0,VALID,92.652,VALID,0.009,VALID,19.795,VALID,115.0,VALID,0.976,
2017-04-19, 03:20:06,VALID,916.89,VALID,0.0,VALID,92.753,VALID,0.007,VALID,19.791,VALID,116.0,VALID,1.066,
2017-04-19, 03:21:06,VALID,916.875,VALID,0.0,VALID,92.931,VALID,0.006,VALID,19.768,VALID,115.0,VALID,1.039,
2017-04-19, 03:22:06,VALID,916.869,VALID,0.0,VALID,93.141,VALID,0.015,VALID,19.733,VALID,109.0,VALID,1.004,
2017-04-19, 03:23:06,VALID,916.862,VALID,0.0,VALID,93.338,VALID,0.017,VALID,19.717,VALID,109.0,VALID,0.838,
2017-04-19, 03:24:06,VALID,916.856,VALID,0.0,VALID,93.412,VALID,0.004,VALID,19.696,VALID,108.0,VALID,0.842,
2017-04-19, 03:25:06,VALID,916.86,VALID,0.0,VALID,93.254,VALID,0.006,VALID,19.682,VALID,113.0,VALID,0.795,
2017-04-19, 03:26:06,VALID,916.856,VALID,0.0,VALID,93.278,VALID,-0.002,VALID,19.668,VALID,118.0,VALID,0.732,
2017-04-19, 03:27:06,VALID,916.871,VALID,0.0,VALID,93.349,VALID,-0.013,VALID,19.648,VALID,134.0,VALID,0.775,
2017-04-19, 03:28:06,VALID,916.892,VALID,0.0,VALID,93.763,VALID,0.013,VALID,19.622,VALID,139.0,VALID,0.813,
2017-04-19, 03:29:06,VALID,916.885,VALID,0.0,VALID,93.88,VALID,-0.007,VALID,19.614,VALID,148.0,VALID,0.741,
2017-04-19, 03:30:06,VALID,916.887,VALID,0.0,VALID,93.74,VALID,0.002,VALID,19.632,VALID,148.0,VALID,0.759,
2017-04-19, 03:31:06,VALID,916.902,VALID,0.0,VALID,93.659,VALID,0.012,VALID,19.671,VALID,150.0,VALID,0.795,
2017-04-19, 03:32:06,VALID,916.899,VALID,0.0,VALID,93.792,VALID,0.01,VALID,19.711,VALID,146.0,VALID,0.8,
2017-04-19, 03:33:06,VALID,916.899,VALID,0.0,VALID,93.709,VALID,0.01,VALID,19.725,VALID,143.0,VALID,0.514,
2017-04-19, 03:34:06,VALID,916.902,VALID,0.0,VALID,93.381,VALID,0.013,VALID,19.743,VALID,135.0,VALID,0.286,
2017-04-19, 03:35:06,VALID,916.91,VALID,0.0,VALID,92.959,VALID,0.01,VALID,19.731,VALID,126.0,VALID,0.018,
2017-04-19, 03:36:06,VALID,916.923,VALID,0.0,VALID,93.151,VALID,-0.003,VALID,19.714,VALID,128.0,VALID,0.196,
2017-04-19, 03:37:06,VALID,916.93,VALID,0.0,VALID,93.336,VALID,0.007,VALID,19.701,VALID,131.0,VALID,0.209,
2017-04-19, 03:38:06,VALID,916.932,VALID,0.0,VALID,93.358,VALID,-0.004,VALID,19.682,VALID,132.0,VALID,0.038,